This is the latest recevied weather packets stored in our database for station/object WZ9ZZZ-1. If no packets are shown the sender has not sent any weather packets the latest 10 day(s).
| Time | Temp. | Humidity | Pressure | Rain* | Wind** | Luminosity | Snow |
|---|---|---|---|---|---|---|---|
| 1777643062 | 18.89° C | 96% | 1015 hPa | 0 mm | - | 12 W/m² | - |
| 1777642758 | 18.89° C | 96% | 1015.5 hPa | 0 mm | - | 7 W/m² | - |
| 1777642455 | 18.89° C | 96% | 1015.8 hPa | 0 mm | - | 6 W/m² | - |
| 1777642152 | 18.89° C | 96% | 1015.9 hPa | 0 mm | - | 10 W/m² | - |
| 1777641849 | 18.89° C | 96% | 1015.9 hPa | 0 mm | - | 12 W/m² | - |
| 1777641543 | 18.89° C | 96% | 1015.6 hPa | 0 mm | - | 13 W/m² | - |
| 1777641238 | 18.89° C | 96% | 1014.8 hPa | 0 mm | - | 16 W/m² | - |
| 1777640328 | 18.89° C | 96% | 1015.1 hPa | 0 mm | - | 8 W/m² | - |
| 1777640025 | 18.89° C | 96% | 1015.2 hPa | 0 mm | - | 4 W/m² | - |
| 1777639722 | 18.89° C | 96% | 1014.8 hPa | 0 mm | - | 7 W/m² | - |
| 1777638817 | 18.89° C | 95% | 1013.6 hPa | 3.56 mm | - | 4 W/m² | - |
| 1777638518 | 18.89° C | 95% | 1014.8 hPa | 0 mm | - | 0 W/m² | - |
| 1777638215 | 18.89° C | 95% | 1014.9 hPa | 1.27 mm | - | 0 W/m² | - |
| 1777637911 | 18.89° C | 95% | 1015.1 hPa | 3.05 mm | - | 0 W/m² | - |
| 1777637607 | 18.89° C | 95% | 1013.7 hPa | 1.78 mm | - | 0 W/m² | - |
| 1777637304 | 18.89° C | 95% | 1013.2 hPa | 0 mm | - | 3 W/m² | - |
| 1777637001 | 18.89° C | 94% | 1013.9 hPa | 0 mm | - | 0 W/m² | - |
| 1777636697 | 18.89° C | 94% | 1013.5 hPa | 4.32 mm | - | 0 W/m² | - |
| 1777636393 | 19.44° C | 93% | 1013.7 hPa | 6.1 mm | - | 0 W/m² | - |
| 1777636089 | 19.44° C | 93% | 1014 hPa | 1.78 mm | - | 0 W/m² | - |
| 1777635481 | 19.44° C | 93% | 1014.3 hPa | 0 mm | - | 0 W/m² | - |
| 1777635178 | 19.44° C | 93% | 1014.2 hPa | 0 mm | - | 0 W/m² | - |
| 1777634874 | 19.44° C | 94% | 1014.2 hPa | 0 mm | - | 0 W/m² | - |
| 1777634571 | 19.44° C | 94% | 1014.2 hPa | 0 mm | - | 0 W/m² | - |
| 1777634268 | 19.44° C | 93% | 1013.9 hPa | 0 mm | - | 0 W/m² | - |
* Rain latest hour (hover to see other rain measurements)
** Current wind speed in m/s (hover to see current wind gust speed)